Airfield :







YOU CAN JOIN US ON...

 
LOGIN :

Register | Disclaimer

   EN    FR    IT 

 









Legend :    VFR   Marginal VFR   IFR   Intensive IFR   Very Intensive IFR
Visi :
Ceiling :
>= 8 km
>= 3000ft
5 to 8 km
1000 to 3000 ft
1500m to 5 km
500 to 1000 ft
800 to 1500m
200 to 500 ft
< 800m
< 200 ft
Symbols :   Thunderstorms  Fog  Heavy snow  Heavy precipitations  Wind > 20 kt







- Airport Elevation : 577 ft


KVSF - Hartness State (Springfield)

CURRENT METAR :
  • 201854Z AUTO 32005KT 10SM SCT060 34/19 A2977 RMK AO2 SLP076 T03390194

EXPIRED METARs :
  • 201754Z AUTO VRB05KT 10SM BKN060 34/19 A2978 RMK AO2 SLP078 T03390194 10350 20261 58016
  • 201654Z AUTO 27007KT 10SM FEW050 34/19 A2980 RMK AO2 SLP087 T03390194

TAF N/A
KZBW FIR / North America



MET'MAP, your aeronautical weather chart ! - Copyright ORBIFLY December 2007 - Disclaimer

ORBIFLY MET'MAP TEAM :

Programming & Development : Alexandra Zaïnal
Concept & Development : Baudouin d'Aumeries
Co-Development & Prog : Marc-Olivier Méhu
Technical & hardware support : Manuel Goepfert

Contact : metmap@orbifly.com




SOURCES & CREDITS :

   NOAA